Location: Newark
(0.5300°S, 127.4800°E)
Time: 04:34:52
(UTC+00:00)

A-11 Canister half - Pass Details

Date: 23 September 2019
Orbit: 1514 x 1686 km, 47.2° (Epoch: 21 October)

Event Time Altitude Azimuth Distance (km) Brightness Sun altitude
Rises 23:51:57 0° 258° (WSW) 4,809 11.1 37.3°
Reaches altitude 10° 23:56:42 10° 277° (W) 3,786 10.7 38.5°
Maximum altitude 00:02:11 17° 313° (NW) 3,248 10.5 39.9°
Drops below altitude 10° 00:07:36 10° 349° (N) 3,707 11.0 41.2°
Sets 00:12:15 0° 9° (N) 4,664 11.6 42.4°
